EN

Hourly Weather Dziobin

Today, 29 October, Thursday

Time Temperature Precipitation Wind Pressure Humidity
00:00 +9°C° 0 mm 3 mps 749 mmHg 81%
01:00 +9°C° 0 mm 2 mps 749 mmHg 80%
02:00 +9°C° 0 mm 3 mps 749 mmHg 83%
03:00 +8°C° 0 mm 3 mps 749 mmHg 85%
04:00 +8°C° 0 mm 3 mps 749 mmHg 88%
05:00 +8°C° 0 mm 3 mps 749 mmHg 88%
06:00 +8°C° 0 mm 3 mps 749 mmHg 87%
07:00 +8°C° 0 mm 3 mps 748 mmHg 87%
08:00 +10°C° 0 mm 4 mps 748 mmHg 82%
09:00 +11°C° 0 mm 4 mps 748 mmHg 77%
10:00 +12°C° 0 mm 5 mps 748 mmHg 72%
11:00 +12°C° 0.3 mm 5 mps 748 mmHg 76%
12:00 +10°C° 0.3 mm 5 mps 748 mmHg 80%
13:00 +10°C° 0.3 mm 5 mps 748 mmHg 84%
14:00 +10°C° 0.2 mm 5 mps 748 mmHg 81%
15:00 +10°C° 0.2 mm 5 mps 749 mmHg 78%
16:00 +11°C° 0.2 mm 4 mps 749 mmHg 76%
17:00 +10°C° 0 mm 4 mps 749 mmHg 77%
18:00 +8°C° 0 mm 4 mps 750 mmHg 79%
19:00 +7°C° 0 mm 4 mps 750 mmHg 81%
20:00 +7°C° 0 mm 4 mps 751 mmHg 81%
21:00 +7°C° 0 mm 4 mps 751 mmHg 82%
22:00 +6°C° 0 mm 5 mps 751 mmHg 82%
23:00 +6°C° 0 mm 5 mps 751 mmHg 83%

Tomorrow, 30 October, Friday

Time Temperature Precipitation Wind Pressure Humidity
00:00 +6°C° 0 mm 5 mps 752 mmHg 83%
01:00 +6°C° 0 mm 5 mps 752 mmHg 83%
02:00 +5°C° 0 mm 4 mps 752 mmHg 86%
03:00 +5°C° 0 mm 4 mps 752 mmHg 88%
04:00 +5°C° 0 mm 4 mps 752 mmHg 90%
05:00 +4°C° 0 mm 4 mps 752 mmHg 91%
06:00 +4°C° 0 mm 4 mps 752 mmHg 91%
07:00 +4°C° 0 mm 3 mps 752 mmHg 91%
08:00 +5°C° 0 mm 3 mps 752 mmHg 87%
09:00 +6°C° 0 mm 4 mps 752 mmHg 83%
10:00 +7°C° 0 mm 4 mps 752 mmHg 79%
11:00 +7°C° 0.2 mm 4 mps 751 mmHg 82%
12:00 +8°C° 0.2 mm 3 mps 751 mmHg 84%
13:00 +8°C° 0.2 mm 3 mps 751 mmHg 87%
14:00 +8°C° 0.8 mm 3 mps 750 mmHg 90%
15:00 +8°C° 0.8 mm 3 mps 750 mmHg 92%
16:00 +8°C° 0.8 mm 2 mps 750 mmHg 95%
17:00 +8°C° 0.6 mm 2 mps 750 mmHg 95%
18:00 +9°C° 0.6 mm 1 mps 750 mmHg 96%
19:00 +8°C° 0.6 mm 0 mps 750 mmHg 97%
20:00 +8°C° 0.6 mm 0 mps 750 mmHg 97%
21:00 +9°C° 0.6 mm 1 mps 751 mmHg 97%
22:00 +9°C° 0.6 mm 1 mps 751 mmHg 96%
23:00 +9°C° 0.1 mm 1 mps 751 mmHg 96%

Day after tomorrow, 31 October, Saturday

Time Temperature Precipitation Wind Pressure Humidity
00:00 +9°C° 0.1 mm 1 mps 752 mmHg 96%
01:00 +8°C° 0.1 mm 2 mps 752 mmHg 96%
02:00 +7°C° 0 mm 2 mps 753 mmHg 96%
03:00 +7°C° 0 mm 2 mps 753 mmHg 96%
04:00 +6°C° 0 mm 2 mps 754 mmHg 96%
05:00 +7°C° 0 mm 1 mps 754 mmHg 95%
06:00 +7°C° 0 mm 1 mps 754 mmHg 95%
07:00 +6°C° 0 mm 1 mps 755 mmHg 94%
08:00 +8°C° 0 mm 1 mps 755 mmHg 88%
09:00 +9°C° 0 mm 1 mps 756 mmHg 81%
10:00 +10°C° 0 mm 1 mps 756 mmHg 74%
11:00 +11°C° 0 mm 1 mps 756 mmHg 72%
12:00 +12°C° 0 mm 1 mps 756 mmHg 69%
13:00 +12°C° 0 mm 1 mps 757 mmHg 66%
14:00 +12°C° 0 mm 1 mps 757 mmHg 70%
15:00 +11°C° 0 mm 1 mps 757 mmHg 75%
16:00 +10°C° 0 mm 1 mps 757 mmHg 79%
17:00 +10°C° 0 mm 1 mps 757 mmHg 82%
18:00 +9°C° 0 mm 1 mps 757 mmHg 85%
19:00 +8°C° 0 mm 2 mps 758 mmHg 87%
20:00 +7°C° 0 mm 2 mps 758 mmHg 88%
21:00 +7°C° 0 mm 2 mps 758 mmHg 89%
22:00 +7°C° 0 mm 2 mps 758 mmHg 89%
23:00 +6°C° 0 mm 2 mps 758 mmHg 90%

1 November, Sunday

Time Temperature Precipitation Wind Pressure Humidity
00:00 +6°C° 0 mm 2 mps 758 mmHg 91%
01:00 +5°C° 0 mm 3 mps 758 mmHg 91%
02:00 +5°C° 0 mm 3 mps 758 mmHg 92%
03:00 +4°C° 0 mm 3 mps 757 mmHg 92%
04:00 +4°C° 0 mm 3 mps 757 mmHg 92%
05:00 +4°C° 0 mm 3 mps 757 mmHg 92%
06:00 +4°C° 0 mm 3 mps 757 mmHg 92%
07:00 +4°C° 0 mm 3 mps 757 mmHg 92%
08:00 +5°C° 0 mm 4 mps 757 mmHg 85%
09:00 +6°C° 0 mm 4 mps 757 mmHg 78%
10:00 +8°C° 0 mm 5 mps 757 mmHg 71%
11:00 +8°C° 0 mm 5 mps 756 mmHg 69%
12:00 +9°C° 0 mm 6 mps 756 mmHg 66%
13:00 +10°C° 0 mm 6 mps 756 mmHg 63%
14:00 +9°C° 0 mm 5 mps 755 mmHg 66%
15:00 +9°C° 0 mm 5 mps 755 mmHg 69%
16:00 +8°C° 0 mm 4 mps 755 mmHg 72%
17:00 +7°C° 0 mm 4 mps 754 mmHg 74%
18:00 +7°C° 0 mm 5 mps 754 mmHg 76%
19:00 +6°C° 0 mm 5 mps 754 mmHg 78%
20:00 +6°C° 0 mm 5 mps 754 mmHg 79%
21:00 +6°C° 0 mm 5 mps 754 mmHg 80%
22:00 +6°C° 0 mm 5 mps 754 mmHg 81%
23:00 +6°C° 0 mm 5 mps 754 mmHg 82%

2 November, Monday

Time Temperature Precipitation Wind Pressure Humidity
00:00 +6°C° 0 mm 5 mps 754 mmHg 84%
01:00 +6°C° 0 mm 4 mps 754 mmHg 85%
02:00 +5°C° 0 mm 4 mps 754 mmHg 87%
03:00 +5°C° 0 mm 4 mps 753 mmHg 89%
04:00 +5°C° 0 mm 4 mps 753 mmHg 91%
05:00 +5°C° 0 mm 4 mps 753 mmHg 91%
06:00 +5°C° 0 mm 4 mps 753 mmHg 92%
07:00 +5°C° 0 mm 4 mps 753 mmHg 92%
08:00 +6°C° 0 mm 4 mps 753 mmHg 87%
09:00 +8°C° 0 mm 4 mps 753 mmHg 83%
10:00 +9°C° 0 mm 5 mps 753 mmHg 78%
11:00 +10°C° 0 mm 5 mps 753 mmHg 75%
12:00 +12°C° 0 mm 5 mps 753 mmHg 72%
13:00 +13°C° 0 mm 5 mps 753 mmHg 69%
14:00 +12°C° 0 mm 4 mps 752 mmHg 72%
15:00 +12°C° 0 mm 4 mps 752 mmHg 74%
16:00 +11°C° 0 mm 4 mps 752 mmHg 77%
17:00 +11°C° 0 mm 4 mps 752 mmHg 76%
18:00 +10°C° 0 mm 4 mps 752 mmHg 75%
19:00 +9°C° 0 mm 5 mps 752 mmHg 75%
20:00 +9°C° 0 mm 5 mps 752 mmHg 75%
21:00 +8°C° 0 mm 4 mps 752 mmHg 75%
22:00 +8°C° 0 mm 4 mps 752 mmHg 76%
23:00 +8°C° 0 mm 4 mps 752 mmHg 76%

3 November, Tuesday

Time Temperature Precipitation Wind Pressure Humidity
00:00 +8°C° 0 mm 4 mps 752 mmHg 76%
01:00 +7°C° 0 mm 4 mps 753 mmHg 76%
02:00 +7°C° 0 mm 4 mps 753 mmHg 77%
03:00 +7°C° 0 mm 4 mps 752 mmHg 77%
04:00 +7°C° 0 mm 4 mps 752 mmHg 77%
05:00 +7°C° 0 mm 4 mps 753 mmHg 78%
06:00 +7°C° 0 mm 4 mps 753 mmHg 78%
07:00 +6°C° 0 mm 4 mps 753 mmHg 78%
08:00 +7°C° 0 mm 4 mps 753 mmHg 76%
09:00 +8°C° 0 mm 4 mps 753 mmHg 73%
10:00 +8°C° 0 mm 4 mps 753 mmHg 71%
11:00 +10°C° 0 mm 4 mps 754 mmHg 69%
12:00 +10°C° 0 mm 3 mps 754 mmHg 68%
13:00 +11°C° 0 mm 3 mps 754 mmHg 66%
14:00 +11°C° 0 mm 3 mps 754 mmHg 68%
15:00 +10°C° 0 mm 3 mps 754 mmHg 71%
16:00 +10°C° 0 mm 3 mps 754 mmHg 73%
17:00 +9°C° 0 mm 3 mps 754 mmHg 76%
18:00 +9°C° 0 mm 3 mps 755 mmHg 79%
19:00 +8°C° 0 mm 3 mps 755 mmHg 81%
20:00 +8°C° 0 mm 3 mps 755 mmHg 83%
21:00 +7°C° 0 mm 3 mps 755 mmHg 85%
22:00 +7°C° 0 mm 3 mps 756 mmHg 86%
23:00 +7°C° 0 mm 3 mps 756 mmHg 88%
Show more